Flag for Canada Weather past 2 weeks in Cumberland County, Nova Scotia, Canada

Now
48 °F

Cool.


Feels Like: 48 °F
Forecast: 44 / 58 °F
Wind: 1 mph from East

Location: Kentville


UV Index: 3 (Moderate)

Visibility: N/A


Pressure: 29.56 "Hg

Humidity: 82%

Dew point: 43 °F

Location of Cumberland CountyLocation

Historic Weather in Cumberland County

°F

Cumberland County temperature yesterday

Maximum temperature yesterday: 61 °F (at 6:00 PM)
Minimum temperature yesterday: 44 °F (at 7:00 AM)
Average temperature yesterday: 52 °F

Past Weeks' High & Low Weather Summary

 TemperatureHumidityPressure
High73 °F (Apr 14, 3:00 PM)100% (Apr 8, 4:00 PM)30.82 "Hg (Apr 8, 4:00 PM)
Low24 °F (Apr 18, 7:00 AM)22% (Apr 21, 6:00 PM)29.25 "Hg (Apr 9, 3:00 AM)
Average45 °F65%30.06 "Hg
* Reported Apr 8 3:00 AM — Apr 23 3:00 AM, Cumberland County, Weather by CustomWeather, © 2014

Note: Actual official high and low records may vary slightly from our data, if they occured in-between our weather recording intervals... More about our weather records

Advertising

Historic Weather Conditions — Data for Previous 24 hours

 ConditionsComfort  
Time TempWeatherWind HumidityBarometerVisibility
3:00 AM
Apr 23
49 °FCool.2 mph84%29.58 "HgN/A
2:00 AM50 °FCool.1 mph87%29.60 "HgN/A
1:00 AM50 °FCool.6 mph88%29.61 "HgN/A
12:00 AM51 °FCool.3 mph81%29.62 "HgN/A
11:00 PM
Apr 22
51 °FCool.No wind79%29.64 "HgN/A
10:00 PM51 °FCool.2 mph72%29.65 "HgN/A
9:00 PM52 °FCool.1 mph73%29.65 "HgN/A
8:00 PM53 °FCool.3 mph67%29.65 "HgN/A
7:00 PM58 °FRefreshingly cool.6 mph58%29.64 "HgN/A
6:00 PM61 °FRefreshingly cool.6 mph50%29.64 "HgN/A
5:00 PM57 °FCool.6 mph62%29.65 "HgN/A
4:00 PM57 °FCool.9 mph63%29.65 "HgN/A
3:00 PM55 °FCool.7 mph65%29.68 "HgN/A
2:00 PM57 °FRefreshingly cool.6 mph59%29.70 "HgN/A
1:00 PM53 °FCool.6 mph66%29.72 "HgN/A
12:00 PM55 °FCool.6 mph65%29.73 "HgN/A
11:00 AM55 °FCool.1 mph62%29.74 "HgN/A
10:00 AM53 °FCool.5 mph65%29.75 "HgN/A
9:00 AM53 °FCool.7 mph66%29.76 "HgN/A
8:00 AM48 °FCool.2 mph73%29.77 "HgN/A
7:00 AM44 °FQuite cool.3 mph83%29.78 "HgN/A
6:00 AM46 °FCool.2 mph78%29.78 "HgN/A
5:00 AM46 °FCool.2 mph75%29.79 "HgN/A
Weather by CustomWeather, © 2014

See weather overview